Location: Sternwarte_Laufen
(47.9344°N, 12.9346°E)
Time: 22:40:02
(UTC+02:00)

ISS - Pass Details

Date: 13 July 2018
Orbit: 402 x 408 km, 51.6° (Epoch: 22 July)

Event Time Altitude Azimuth Distance (km) Brightness Sun altitude
Exits shadow 03:30:34 - 273° (W) 1,507 -1.2 -13.8°
Reaches altitude 10° 03:30:40 10° 274° (W) 1,469 -1.3 -13.8°
Maximum altitude 03:33:52 47° 350° (N) 549 -2.9 -13.5°
Drops below altitude 10° 03:37:05 10° 66° (ENE) 1,475 -0.1 -13.2°
Sets 03:39:13 0° 72° (ENE) 2,337 0.9 -13.0°
